FW3806 Weather Reports


Display with metric or nautical units.
time (UTC)temp
F
wind
direction
speed
MPH
gust
MPH
rain 1hr
in
rain 24hr
in
rain mn
in
humidity
%
barometer
mb
20260509181600 92 124 3.0 7.0 0.00 0.00 0.00 9 1008.0
20260509180053 91 109 0.0 7.0 0.00 0.00 0.00 9 1008.1
20260509174553 92 97 5.0 9.0 0.00 0.00 0.00 9 1008.1
20260509173051 92 324 1.0 4.0 0.00 0.00 0.00 9 1008.2
20260509171550 89 108 0.0 7.0 0.00 0.00 0.00 9 1008.2
20260509170050 89 281 3.0 8.0 0.00 0.00 0.00 11 1008.0
20260509164544 88 299 5.0 11.0 0.00 0.00 0.00 10 1008.1
20260509163039 87 331 7.0 14.0 0.00 0.00 0.00 11 1008.1
20260509161536 86 338 8.0 16.0 0.00 0.00 0.00 11 1008.1
20260509160038 85 320 6.0 13.0 0.00 0.00 0.00 11 1008.1
20260509154534 84 329 6.0 14.0 0.00 0.00 0.00 12 1008.1
20260509153036 83 336 7.0 14.0 0.00 0.00 0.00 12 1008.2
20260509151627 82 322 6.0 12.0 0.00 0.00 0.00 14 1008.3
20260509150027 80 287 3.0 7.0 0.00 0.00 0.00 14 1008.2
20260509144532 78 323 4.0 8.0 0.00 0.00 0.00 14 1008.4
20260509143026 76 327 1.0 7.0 0.00 0.00 0.00 15 1008.3
20260509141524 74 321 0.0 5.0 0.00 0.00 0.00 15 1008.3
20260509140023 73 319 1.0 8.0 0.00 0.00 0.00 16 1008.1
20260509134521 72 333 2.0 9.0 0.00 0.00 0.00 15 1007.9
20260509133020 72 333 5.0 12.0 0.00 0.00 0.00 15 1007.7
20260509131516 72 325 4.0 13.0 0.00 0.00 0.00 15 1007.3
20260509130016 71 327 8.0 15.0 0.00 0.00 0.00 15 1007.1
20260509124513 72 304 6.0 11.0 0.00 0.00 0.00 16 1006.8
20260509123017 71 290 5.0 12.0 0.00 0.00 0.00 17 1006.6
20260509121513 71 333 5.0 10.0 0.00 0.00 0.00 17 1006.6
20260509120008 71 288 3.0 9.0 0.00 0.00 0.00 16 1006.5
20260509114506 72 329 6.0 12.0 0.00 0.00 0.00 16 1006.4
20260509113005 72 333 7.0 15.0 0.00 0.00 0.00 17 1006.4
20260509111502 71 316 6.0 14.0 0.00 0.00 0.00 17 1006.4
20260509104555 76 325 8.0 14.0 0.00 0.00 0.00 15 1006.1
20260509103101 75 317 3.0 7.0 0.00 0.00 0.00 15 1006.1
20260509101559 76 317 3.0 7.0 0.00 0.00 0.00 15 1006.1
20260509100053 75 315 2.0 5.0 0.00 0.00 0.00 16 1006.1
20260509094551 75 303 0.0 6.0 0.00 0.00 0.00 16 1006.3
20260509093052 75 298 3.0 8.0 0.00 0.00 0.00 16 1006.1
20260509091611 76 288 3.0 11.0 0.00 0.00 0.00 16 1006.1
20260509090047 77 321 4.0 9.0 0.00 0.00 0.00 15 1006.1
20260509084548 77 326 1.0 5.0 0.00 0.00 0.00 16 1005.9
20260509083048 76 342 2.0 6.0 0.00 0.00 0.00 16 1005.9
20260509081544 75 304 0.0 5.0 0.00 0.00 0.00 16 1005.9
20260509080050 74 325 0.0 4.0 0.00 0.00 0.00 17 1005.9
20260509074548 75 324 1.0 5.0 0.00 0.00 0.00 17 1006.0
20260509073105 78 346 4.0 7.0 0.00 0.00 0.00 16 1006.0
20260509071535 81 321 1.0 3.0 0.00 0.00 0.00 13 1005.9
20260509070027 83 313 1.0 6.0 0.00 0.00 0.00 12 1005.9
20260509064526 83 281 2.0 8.0 0.00 0.00 0.00 12 1006.0
20260509063028 82 302 0.0 3.0 0.00 0.00 0.00 13 1005.9
20260509061524 84 271 1.0 5.0 0.00 0.00 0.00 12 1005.8
20260509060035 84 276 2.0 5.0 0.00 0.00 0.00 12 1005.8
20260509054524 82 274 1.0 3.0 0.00 0.00 0.00 13 1005.7
20260509053030 82 302 0.0 5.0 0.00 0.00 0.00 14 1005.8
20260509051523 82 319 1.0 3.0 0.00 0.00 0.00 14 1005.7
20260509050022 83 319 0.0 6.0 0.00 0.00 0.00 13 1005.7
20260509044532 84 359 0.0 4.0 0.00 0.00 0.00 13 1005.7
20260509043030 83 327 1.0 4.0 0.00 0.00 0.00 13 1005.6
20260509041521 83 359 2.0 6.0 0.00 0.00 0.00 13 1005.4
20260509040020 85 284 0.0 1.0 0.00 0.00 0.00 12 1005.2
20260509034529 87 274 0.0 0.0 0.00 0.00 0.00 11 1005.0
20260509033019 89 274 0.0 3.0 0.00 0.00 0.00 10 1005.0
20260509031519 89 271 0.0 4.0 0.00 0.00 0.00 9 1004.8
20260509030019 90 276 1.0 3.0 0.00 0.00 0.00 8 1004.9
20260509024518 90 262 1.0 4.0 0.00 0.00 0.00 8 1004.7
20260509023019 92 291 0.0 5.0 0.00 0.00 0.00 7 1004.6
20260509021517 93 314 2.0 8.0 0.00 0.00 0.00 7 1004.4
20260509020017 94 316 5.0 13.0 0.00 0.00 0.00 6 1004.3
20260509014516 95 338 5.0 10.0 0.00 0.00 0.00 7 1004.3
20260509013018 95 328 4.0 10.0 0.00 0.00 0.00 6 1004.3
20260509011515 95 349 2.0 11.0 0.00 0.00 0.00 7 1004.3
20260509010019 95 334 2.0 11.0 0.00 0.00 0.00 7 1004.5
20260509004512 96 309 6.0 13.0 0.00 0.00 0.00 7 1004.5
20260509003019 96 276 4.0 10.0 0.00 0.00 0.00 7 1004.6
20260509001511 96 257 5.0 10.0 0.00 0.00 0.00 6 1004.6
20260509000009 96 324 6.0 13.0 0.00 0.00 0.00 6 1004.9
20260508234508 96 322 6.0 12.0 0.00 0.00 0.00 6 1004.8
20260508233007 96 323 4.0 14.0 0.00 0.00 0.00 7 1005.0
20260508231505 96 284 2.0 14.0 0.00 0.00 0.00 7 1005.1
20260508230004 96 314 0.0 17.0 0.00 0.00 0.00 6 1005.1
20260508224506 96 318 4.0 10.0 0.00 0.00 0.00 7 1005.4
20260508223002 96 307 7.0 15.0 0.00 0.00 0.00 6 1005.6
20260508221559 96 287 0.0 12.0 0.00 0.00 0.00 7 1005.8
20260508214606 97 207 0.0 9.0 0.00 0.00 0.00 7 1006.2
20260508213053 96 329 1.0 12.0 0.00 0.00 0.00 7 1006.4
20260508211551 97 288 3.0 10.0 0.00 0.00 0.00 8 1006.6
20260508210049 95 282 5.0 11.0 0.00 0.00 0.00 8 1006.7
20260508204547 96 308 0.0 16.0 0.00 0.00 0.00 9 1007.1
20260508203047 95 325 5.0 14.0 0.00 0.00 0.00 8 1007.2
20260508201542 94 112 3.0 14.0 0.00 0.00 0.00 8 1007.4
20260508200040 95 264 3.0 10.0 0.00 0.00 0.00 8 1007.6
20260508194537 94 292 0.0 9.0 0.00 0.00 0.00 9 1007.8
20260508193038 94 104 3.0 7.0 0.00 0.00 0.00 9 1008.0
20260508191534 92 77 3.0 8.0 0.00 0.00 0.00 9 1008.1
20260508190030 91 135 4.0 13.0 0.00 0.00 0.00 11 1008.4
20260508184531 90 100 7.0 14.0 0.00 0.00 0.00 11 1008.7
20260508183026 90 51 7.0 12.0 0.00 0.00 0.00 11 1008.9